Weather History for Vidalia, GA

Change the Weather History Date:

Wednesday, October 3, 2012

  Actual Average (KAZE) Record (KAZE)
Temperature  
Mean Temperature 74 °F -  
Max Temperature 80 °F 80 °F 84 °F (2013)
Min Temperature 69 °F 52 °F 60 °F (2013)
Cooling Degree Days 10    
Growing Degree Days 24 (Base 50)    
Moisture  
Dew Point 69 °F    
Average Humidity 85    
Maximum Humidity 100    
Minimum Humidity 54    
Precipitation  
Precipitation 0.00 in - - ()
Sea Level Pressure  
Sea Level Pressure 30.11 in    
Wind  
Wind Speed 1 mph (SSW)    
Max Wind Speed 8 mph    
Max Gust Speed -    
Visibility 10 miles    
Events Rain    
Averages and records for this station are not official NWS values.
T = Trace of Precipitation, MM = Missing Value Source: NWS Daily Summary

Daily Weather History Graph

Daily Weather History Graph

Search for Another Location

Airport:

Trip Planner

Search our weather history database for the weather conditions in past years. The results will help you decide how hot, cold, wet, or windy it might be!

Date:

Astronomy

Oct. 03, 2012 Rise Set
Actual Time 7:25 AM EDT 7:11 PM EDT
Civil Twilight 7:00 AM EDT 7:35 PM EDT
Nautical Twilight 6:32 AM EDT 8:03 PM EDT
Astronomical Twilight 6:03 AM EDT 8:32 PM EDT
Moon 9:16 PM EDT (10/3) 10:33 AM EDT (10/3)
Length of Visible Light 12h 34m
Length of Day
11h 45m
Waning Gibbous, 89% of the Moon is Illuminated
Oct 3
Waning Gibbous
Oct 8
Last Quarter
Oct 15
New
Oct 21
First Quarter
Oct 29
Full

Hourly Weather History & Observations

Time (EDT) Temp. Heat Index Dew Point Humidity Pressure Visibility Wind Dir Wind Speed Gust Speed Precip Events Conditions
12:15 AM 73.4 °F - 71.6 °F 94% 30.01 in 10.0 mi Calm Calm - N/A   Mostly Cloudy
12:35 AM 73.4 °F - 71.6 °F 94% 30.01 in 10.0 mi Calm Calm - N/A   Scattered Clouds
12:55 AM 73.4 °F - 71.6 °F 94% 30.00 in 10.0 mi Calm Calm - N/A   Clear
1:15 AM 73.4 °F - 71.6 °F 94% 30.01 in 10.0 mi Calm Calm - N/A   Clear
1:35 AM 73.4 °F - 69.8 °F 88% 30.01 in 10.0 mi Calm Calm - N/A   Clear
1:55 AM 73.4 °F - 69.8 °F 88% 30.02 in 10.0 mi Calm Calm - N/A   Clear
2:15 AM 71.6 °F - 69.8 °F 94% 30.02 in 10.0 mi WNW 3.5 mph - N/A   Clear
2:35 AM 71.6 °F - 69.8 °F 94% 30.02 in 10.0 mi Calm Calm - N/A   Clear
2:55 AM 71.6 °F - 69.8 °F 94% 30.02 in 10.0 mi Calm Calm - N/A   Clear
3:15 AM 71.6 °F - 69.8 °F 94% 30.02 in 10.0 mi Calm Calm - N/A   Clear
3:35 AM 71.6 °F - 69.8 °F 94% 30.02 in 10.0 mi Calm Calm - N/A   Clear
3:55 AM 71.6 °F - 69.8 °F 94% 30.02 in 10.0 mi Calm Calm - N/A   Clear
4:15 AM 71.6 °F - 69.8 °F 94% 30.02 in 10.0 mi Calm Calm - N/A   Clear
4:35 AM 71.6 °F - 69.8 °F 94% 30.02 in 10.0 mi Calm Calm - N/A   Clear
4:55 AM 71.6 °F - 69.8 °F 94% 30.03 in 10.0 mi Calm Calm - N/A   Clear
5:15 AM 71.6 °F - 69.8 °F 94% 30.04 in 10.0 mi Calm Calm - N/A   Clear
5:35 AM 71.6 °F - 69.8 °F 94% 30.05 in 10.0 mi Calm Calm - N/A   Clear
5:55 AM 71.6 °F - 69.8 °F 94% 30.06 in 10.0 mi Calm Calm - N/A   Clear
6:15 AM 71.6 °F - 69.8 °F 94% 30.07 in 10.0 mi Calm Calm - N/A   Clear
6:55 AM 69.8 °F - 69.8 °F 100% 30.08 in 10.0 mi Calm Calm - N/A   Clear
7:15 AM 69.8 °F - 69.8 °F 100% 30.08 in 10.0 mi Calm Calm - N/A   Clear
7:55 AM 71.6 °F - 69.8 °F 94% 30.09 in 10.0 mi Calm Calm - N/A   Clear
8:15 AM 71.6 °F - 68.0 °F 88% 30.09 in 10.0 mi Calm Calm - N/A   Clear
8:35 AM 71.6 °F - 69.8 °F 94% 30.10 in 10.0 mi Calm Calm - N/A   Clear
8:55 AM 73.4 °F - 68.0 °F 83% 30.11 in 10.0 mi Calm Calm - N/A   Scattered Clouds
9:15 AM 73.4 °F - 68.0 °F 83% 30.12 in 10.0 mi Calm Calm - N/A   Scattered Clouds
9:35 AM 73.4 °F - 68.0 °F 83% 30.12 in 10.0 mi Calm Calm - N/A   Clear
9:55 AM 73.4 °F - 68.0 °F 83% 30.13 in 10.0 mi Calm Calm - N/A   Scattered Clouds
10:15 AM 75.2 °F - 68.0 °F 78% 30.13 in 10.0 mi Calm Calm - N/A   Scattered Clouds
10:35 AM 75.2 °F - 68.0 °F 78% 30.14 in 10.0 mi Calm Calm - N/A   Clear
10:55 AM 77.0 °F - 68.0 °F 74% 30.14 in 10.0 mi Calm Calm - N/A   Clear
11:15 AM 78.8 °F - 68.0 °F 69% 30.14 in 10.0 mi Calm Calm - N/A   Clear
11:35 AM 78.8 °F - 68.0 °F 69% 30.14 in 10.0 mi East 3.5 mph - N/A   Clear
11:55 AM 78.8 °F - 68.0 °F 69% 30.14 in 10.0 mi SE 3.5 mph - N/A   Clear
12:35 PM 80.6 °F 83.9 °F 69.8 °F 70% 30.15 in 10.0 mi South 8.1 mph - N/A   Mostly Cloudy
12:55 PM 80.6 °F 83.2 °F 68.0 °F 65% 30.15 in 10.0 mi Calm Calm - N/A   Mostly Cloudy
1:15 PM 80.6 °F 83.2 °F 68.0 °F 65% 30.14 in 10.0 mi SW 4.6 mph - N/A   Scattered Clouds
1:55 PM 80.6 °F 83.2 °F 68.0 °F 65% 30.13 in 10.0 mi SSW 3.5 mph - N/A   Mostly Cloudy
2:15 PM 80.6 °F 83.2 °F 68.0 °F 65% 30.13 in 10.0 mi SW 6.9 mph - N/A Rain Light Rain
2:55 PM 80.6 °F 83.9 °F 69.8 °F 70% 30.12 in 10.0 mi South 3.5 mph - N/A   Mostly Cloudy
3:35 PM 80.6 °F 83.2 °F 68.0 °F 65% 30.11 in 10.0 mi SSW 3.5 mph - N/A   Mostly Cloudy
3:55 PM 78.8 °F - 71.6 °F 78% 30.11 in 10.0 mi South 4.6 mph - N/A   Overcast
4:15 PM 80.6 °F 84.6 °F 71.6 °F 74% 30.11 in 10.0 mi South 4.6 mph - N/A   Scattered Clouds
4:35 PM 80.6 °F 83.9 °F 69.8 °F 70% 30.12 in 10.0 mi SSW 3.5 mph - N/A   Mostly Cloudy
4:55 PM 80.6 °F 81.8 °F 62.6 °F 54% 30.11 in 10.0 mi Calm Calm - N/A   Mostly Cloudy
5:15 PM 78.8 °F - 69.8 °F 74% 30.12 in 10.0 mi South 4.6 mph - N/A   Overcast
5:35 PM 78.8 °F - 69.8 °F 74% 30.13 in 10.0 mi South 4.6 mph - N/A   Overcast
5:55 PM 78.8 °F - 69.8 °F 74% 30.14 in 10.0 mi South 3.5 mph - N/A   Overcast
6:15 PM 77.0 °F - 69.8 °F 78% 30.15 in 10.0 mi South 3.5 mph - N/A   Overcast
6:55 PM 77.0 °F - 69.8 °F 78% 30.16 in 10.0 mi South 3.5 mph - N/A   Overcast
7:15 PM 73.4 °F - 66.2 °F 78% 30.16 in 5.0 mi South 4.6 mph - N/A Rain Rain
7:35 PM 71.6 °F - 68.0 °F 88% 30.15 in 10.0 mi Calm Calm - N/A   Overcast
7:55 PM 69.8 °F - 68.0 °F 94% 30.16 in 10.0 mi Calm Calm - N/A Rain Light Rain
8:15 PM 69.8 °F - 69.8 °F 100% 30.17 in 10.0 mi Calm Calm - N/A Rain Light Rain
8:55 PM 69.8 °F - 69.8 °F 100% 30.20 in 10.0 mi WSW 3.5 mph - N/A Rain Light Rain
9:35 PM 69.8 °F - 68.0 °F 94% 30.20 in 10.0 mi Calm Calm - N/A Rain Light Rain
9:55 PM 69.8 °F - 68.0 °F 94% 30.21 in 10.0 mi Calm Calm - N/A Rain Light Rain
10:35 PM 69.8 °F - 68.0 °F 94% 30.21 in 10.0 mi Calm Calm - N/A   Light Drizzle
10:55 PM 69.8 °F - 68.0 °F 94% 30.21 in 10.0 mi Calm Calm - N/A   Light Drizzle
11:15 PM 69.8 °F - 68.0 °F 94% 30.21 in 10.0 mi West 4.6 mph - N/A   Drizzle
11:35 PM 69.8 °F - 68.0 °F 94% 30.20 in 10.0 mi Calm Calm - N/A   Light Drizzle
11:55 PM 69.8 °F - 68.0 °F 94% 30.20 in 10.0 mi Calm Calm - N/A   Light Drizzle